RANDEV

导读

RANDEV卫星是由韩国(KR)于2022年6月21日8时发射,搭乘韩国自主研发的“世界号”火箭进入太空,是韩国实现自主卫星发射能力里程碑事件中的重要载荷。此次发射标志着韩国成为全球第七个掌握自主发射卫星技术的国家,推动韩国航天事业实现跨越式发展,为韩国后续开展遥感观测、低轨卫星星座建设等航天任务奠定了基础,也彰显了韩国在航天领域自主研发的突破与成果。

Basic Information
目录编号:
52898
目录名称:
RANDEV
国际标识:
2022-065E
轨道中心:
EARTH
卫星名称:
RANDEV
卫星全名:
--
卫星状态:
在轨 (已飞行1546 天)
发射日期:
2022-06-21 UTC
国别 :
韩国 (KR)
星等 :
--
This satellite is enrolled in the Space Conjunction Data Service (SCDS) and the current flight risk assessment level is: No High Risk
Orbit Information
数据来源 国际轨道数据
星历时间: 2026-09-14T04:47:00+0800
6小时前
查看轨道信息
半长轴: 7059.037km
偏心率: 0.0009137
轨道倾角: 98.234°
近地点辐角 104.736°
升交点赤经 40.956°
平近点角 255.485°
近地点: 674.45km
远地点: 687.35km
周期: 98.373分钟
每日圈数: 14.638098
Detailed Information
使用方式:
暂无
2D Orbit Map
3D Orbit Map
Orbit Altitude Analysis Chart
Orbit Inclination Analysis Chart
Orbit Comprehensive Analysis Chart
View Comprehensive Chart
Conjunction Data List
Event ID Objects TCA Miss Dist (km) Collision Risk Probability Collision Risk Index (CRI) Action
CDM_260915-225003-779605-289823
RANDEV (52898)
2026-09-15T
22:50:27+0000
1.650 km
极远距离
4.966098E-6 低风险 0.49
CDM_260914-233503-798805-289823
RANDEV (52898)
2026-09-14T
23:35:10+0000
1.901 km
极远距离
3.286138E-6 低风险 0.45
CDM_260915-145603-394005-289823
RANDEV (52898)
2026-09-15T
14:56:02+0000
2.497 km
极远距离
1.286909E-6 低风险 0.37
CDM_260909-215703-985205-289826
RANDEV (52898)
2026-09-09T
21:57:20+0000
2.975 km
极远距离
1.131673E-6 低风险 0.36
Miss Distance Evolution Trend with All Objects Subscribe to Flight Safety Assessment
Collision Probability Evolution Trend with All Objects Subscribe to Flight Safety Assessment